Change the Weather History Date:

Thursday, June 5, 2014

  Actual Average Record
Temperature  
Mean Temperature 59 °F -  
Max Temperature 73 °F 68 °F 92 °F (1948)
Min Temperature 46 °F 50 °F 39 °F (1948)
Degree Days  
Heating Degree Days 6    
Growing Degree Days 9 (Base 50)    
Moisture  
Dew Point 46 °F    
Average Humidity 65    
Maximum Humidity 100    
Minimum Humidity 31    
Precipitation  
Precipitation 0.00 in - - ()
Sea Level Pressure  
Sea Level Pressure 29.97 in    
Wind  
Wind Speed 4 mph (ENE)    
Max Wind Speed 8 mph    
Max Gust Speed -    
Visibility 9 miles    
Events      
Averages and records for this station are not official NWS values.
T = Trace of Precipitation, MM = Missing Value Source: NWS Daily Summary

Daily Weather History Graph

Daily Weather History Graph

Search for Another Location

Airport or City:

Trip Planner

Search our weather history database for the weather conditions in past years. The results will help you decide how hot, cold, wet, or windy it might be!

Date:

Astronomy

Jun. 05, 2014 Rise Set
Actual Time 5:15 AM CDT 8:25 PM CDT
Civil Twilight 4:40 AM CDT 9:00 PM CDT
Nautical Twilight 3:56 AM CDT 9:44 PM CDT
Astronomical Twilight 3:03 AM CDT 10:38 PM CDT
Moon 12:38 PM CDT (6/5) 12:47 AM CDT (6/5)
Length of Visible Light 16h 19m
Length of Day
15h 10m
Waxing Crescent, 49% of the Moon is Illuminated
Jun 5
Waxing Crescent
Jun 5
First Quarter
Jun 12
Full
Jun 19
Last Quarter
Jun 27
New

Hourly Weather History & Observations

Time (CDT) Temp. Dew Point Humidity Pressure Visibility Wind Dir Wind Speed Gust Speed Precip Events Conditions
12:00 AM 48.9 °F 48.9 °F 100% 29.93 in 1.2 mi NNW 4.6 mph - N/A   Partly Cloudy
12:08 AM 50.0 °F 48.9 °F 96% 29.94 in 4.0 mi North 4.6 mph - N/A   Clear
12:53 AM 53.1 °F 52.0 °F 96% 29.95 in 8.0 mi NNW 5.8 mph - N/A   Clear
1:53 AM 54.0 °F 52.0 °F 93% 29.95 in 6.0 mi North 3.5 mph - N/A   Clear
2:53 AM 48.9 °F 46.9 °F 93% 29.97 in 2.5 mi Calm Calm - N/A   Clear
3:09 AM 51.1 °F 48.9 °F 92% 29.96 in 7.0 mi North 5.8 mph - N/A   Clear
3:53 AM 48.9 °F 48.0 °F 97% 29.98 in 9.0 mi North 3.5 mph - N/A   Clear
4:53 AM 46.0 °F 45.0 °F 96% 29.99 in 7.0 mi Calm Calm - N/A   Clear
5:53 AM 46.9 °F 46.9 °F 100% 30.00 in 10.0 mi NNE 3.5 mph - N/A   Clear
6:53 AM 55.0 °F 48.9 °F 80% 30.00 in 10.0 mi North 3.5 mph - N/A   Clear
7:53 AM 57.9 °F 48.9 °F 72% 29.97 in 10.0 mi NE 8.1 mph - N/A   Clear
8:53 AM 62.1 °F 48.0 °F 60% 30.01 in 10.0 mi Calm Calm - N/A   Clear
9:53 AM 64.9 °F 46.0 °F 50% 30.01 in 10.0 mi East 6.9 mph - N/A   Clear
10:53 AM 66.9 °F 45.0 °F 45% 30.02 in 10.0 mi Variable 3.5 mph - N/A   Clear
11:53 AM 69.1 °F 48.0 °F 47% 29.99 in 10.0 mi East 6.9 mph - N/A   Clear
12:53 PM 69.1 °F 45.0 °F 42% 30.00 in 10.0 mi ESE 5.8 mph - N/A   Clear
1:53 PM 71.1 °F 41.0 °F 34% 29.97 in 10.0 mi SE 4.6 mph - N/A   Clear
2:53 PM 72.0 °F 41.0 °F 33% 29.97 in 10.0 mi SSE 5.8 mph - N/A   Clear
3:53 PM 72.0 °F 39.9 °F 31% 29.95 in 10.0 mi ENE 8.1 mph - N/A   Clear
4:53 PM 72.0 °F 41.0 °F 33% 29.95 in 10.0 mi ESE 6.9 mph - N/A   Clear
5:53 PM 70.0 °F 37.9 °F 31% 29.96 in 10.0 mi ESE 5.8 mph - N/A   Clear
6:53 PM 68.0 °F 39.9 °F 36% 29.96 in 10.0 mi SE 5.8 mph - N/A   Clear
8:53 PM 60.1 °F 45.0 °F 57% 29.97 in 10.0 mi South 3.5 mph - N/A   Clear
9:53 PM 61.0 °F 44.1 °F 54% 29.97 in 10.0 mi South 3.5 mph - N/A   Clear
10:53 PM 57.0 °F 44.1 °F 62% 29.96 in 10.0 mi SSE 3.5 mph - N/A   Clear
11:53 PM 57.0 °F 45.0 °F 64% 29.96 in 10.0 mi Calm Calm - N/A   Clear